When you browse on this site, cookies collect data to enhance your experience and personalize the content and advertising you see.
Visit our Privacy Policy to learn more. By continuing to use the site, you agree to this use of cookies and data.
  • In United Kingdom
  • List of Countries
  • For 7 days
  • Water Temperature
  • Weather Map
  • Weather Widgets
  • user-avatar
    Login

    Hourly Weather Cardiff

    Today, 16 December, Monday

    Time Temperature Precipitation Wind Pressure Humidity
    00:00 +4°C° 0.2 mm 8 mps 745 mmHg 82%
    01:00 +4°C° 0 mm 7 mps 745 mmHg 82%
    02:00 +4°C° 0 mm 7 mps 745 mmHg 82%
    03:00 +4°C° 0 mm 7 mps 745 mmHg 82%
    04:00 +3°C° 0 mm 6 mps 745 mmHg 83%
    05:00 +3°C° 0 mm 5 mps 746 mmHg 83%
    06:00 +4°C° 0 mm 4 mps 746 mmHg 83%
    07:00 +4°C° 0 mm 4 mps 746 mmHg 84%
    08:00 +4°C° 0 mm 4 mps 747 mmHg 85%
    09:00 +4°C° 0 mm 3 mps 747 mmHg 86%
    10:00 +5°C° 0 mm 3 mps 747 mmHg 84%
    11:00 +5°C° 0 mm 3 mps 747 mmHg 83%
    12:00 +7°C° 0 mm 2 mps 747 mmHg 81%
    13:00 +7°C° 0 mm 2 mps 747 mmHg 83%
    14:00 +7°C° 0 mm 2 mps 747 mmHg 84%
    15:00 +6°C° 0 mm 2 mps 747 mmHg 85%
    16:00 +7°C° 0 mm 1 mps 747 mmHg 86%
    17:00 +6°C° 0 mm 1 mps 747 mmHg 88%
    18:00 +5°C° 0 mm 1 mps 747 mmHg 89%
    19:00 +5°C° 0 mm 1 mps 747 mmHg 89%
    20:00 +5°C° 0 mm 1 mps 747 mmHg 90%
    21:00 +5°C° 0 mm 1 mps 747 mmHg 90%
    22:00 +5°C° 0 mm 1 mps 747 mmHg 90%
    23:00 +4°C° 0 mm 2 mps 747 mmHg 90%

    Tomorrow, 17 December, Tuesday

    Time Temperature Precipitation Wind Pressure Humidity
    00:00 +4°C° 0 mm 2 mps 747 mmHg 90%
    01:00 +4°C° 0 mm 2 mps 747 mmHg 90%
    02:00 +4°C° 0 mm 2 mps 746 mmHg 90%
    03:00 +4°C° 0 mm 2 mps 746 mmHg 90%
    04:00 +4°C° 0 mm 2 mps 746 mmHg 90%
    05:00 +4°C° 0 mm 2 mps 746 mmHg 90%
    06:00 +4°C° 0 mm 2 mps 745 mmHg 90%
    07:00 +4°C° 0 mm 2 mps 746 mmHg 89%
    08:00 +5°C° 0 mm 1 mps 746 mmHg 89%
    09:00 +5°C° 0 mm 1 mps 746 mmHg 89%
    10:00 +6°C° 0 mm 1 mps 747 mmHg 87%
    11:00 +7°C° 0 mm 1 mps 747 mmHg 84%
    12:00 +7°C° 0 mm 1 mps 747 mmHg 82%
    13:00 +7°C° 0 mm 1 mps 747 mmHg 84%
    14:00 +7°C° 0 mm 1 mps 747 mmHg 85%
    15:00 +7°C° 0 mm 1 mps 748 mmHg 87%
    16:00 +5°C° 0 mm 2 mps 748 mmHg 88%
    17:00 +4°C° 0 mm 2 mps 749 mmHg 89%
    18:00 +3°C° 0 mm 2 mps 749 mmHg 90%
    19:00 +3°C° 0 mm 2 mps 749 mmHg 89%
    20:00 +3°C° 0 mm 2 mps 750 mmHg 89%
    21:00 +3°C° 0 mm 2 mps 750 mmHg 88%
    22:00 +3°C° 0 mm 2 mps 751 mmHg 87%
    23:00 +3°C° 0 mm 2 mps 751 mmHg 86%

    Day after tomorrow, 18 December, Wednesday

    Time Temperature Precipitation Wind Pressure Humidity
    00:00 +3°C° 0 mm 2 mps 751 mmHg 86%
    01:00 +3°C° 0 mm 2 mps 751 mmHg 86%
    02:00 +3°C° 0 mm 2 mps 751 mmHg 87%
    03:00 +3°C° 0 mm 2 mps 751 mmHg 88%
    04:00 +3°C° 0 mm 2 mps 751 mmHg 87%
    05:00 +3°C° 0 mm 2 mps 752 mmHg 87%
    06:00 +3°C° 0 mm 2 mps 752 mmHg 87%
    07:00 +2°C° 0 mm 3 mps 752 mmHg 87%
    08:00 +1°C° 0 mm 3 mps 752 mmHg 88%
    09:00 0°C° 0 mm 4 mps 752 mmHg 88%
    10:00 +3°C° 0 mm 4 mps 751 mmHg 86%
    11:00 +3°C° 0 mm 5 mps 751 mmHg 85%
    12:00 +4°C° 0 mm 6 mps 751 mmHg 84%
    13:00 +4°C° 0 mm 6 mps 750 mmHg 85%
    14:00 +5°C° 0 mm 7 mps 750 mmHg 86%
    15:00 +5°C° 0 mm 7 mps 749 mmHg 87%
    16:00 +5°C° 0 mm 7 mps 748 mmHg 88%
    17:00 +4°C° 0 mm 8 mps 747 mmHg 89%
    18:00 +4°C° 0 mm 8 mps 747 mmHg 90%
    19:00 +3°C° 0 mm 9 mps 746 mmHg 89%
    20:00 +3°C° 0 mm 9 mps 746 mmHg 89%
    21:00 +3°C° 0 mm 9 mps 745 mmHg 88%
    22:00 +5°C° 0.1 mm 10 mps 744 mmHg 88%
    23:00 +5°C° 0.1 mm 10 mps 743 mmHg 88%

    19 December, Thursday

    Time Temperature Precipitation Wind Pressure Humidity
    00:00 +5°C° 0.1 mm 10 mps 742 mmHg 89%
    01:00 +5°C° 2 mm 10 mps 740 mmHg 91%
    02:00 +6°C° 2 mm 10 mps 739 mmHg 93%
    03:00 +6°C° 2 mm 10 mps 737 mmHg 95%
    04:00 +7°C° 1.7 mm 10 mps 737 mmHg 92%
    05:00 +7°C° 1.7 mm 11 mps 736 mmHg 90%
    06:00 +8°C° 1.7 mm 11 mps 736 mmHg 87%
    07:00 +7°C° 0.6 mm 9 mps 737 mmHg 87%
    08:00 +7°C° 0.6 mm 8 mps 738 mmHg 88%
    09:00 +6°C° 0.6 mm 7 mps 739 mmHg 88%
    10:00 +7°C° 0 mm 6 mps 740 mmHg 86%
    11:00 +8°C° 0 mm 6 mps 741 mmHg 85%
    12:00 +8°C° 0 mm 5 mps 742 mmHg 84%
    13:00 +8°C° 0.1 mm 5 mps 742 mmHg 84%
    14:00 +8°C° 0.1 mm 5 mps 742 mmHg 85%
    15:00 +8°C° 0.1 mm 5 mps 742 mmHg 86%
    16:00 +7°C° 0 mm 4 mps 742 mmHg 88%
    17:00 +6°C° 0 mm 4 mps 742 mmHg 91%
    18:00 +5°C° 0 mm 4 mps 742 mmHg 93%
    19:00 +5°C° 0 mm 4 mps 742 mmHg 94%
    20:00 +5°C° 0 mm 4 mps 742 mmHg 94%
    21:00 +5°C° 0 mm 4 mps 742 mmHg 95%
    22:00 +5°C° 0 mm 4 mps 742 mmHg 95%
    23:00 +5°C° 0 mm 4 mps 741 mmHg 95%

    20 December, Friday

    Time Temperature Precipitation Wind Pressure Humidity
    00:00 +5°C° 0 mm 4 mps 741 mmHg 95%
    01:00 +5°C° 0.1 mm 3 mps 741 mmHg 95%
    02:00 +5°C° 0.1 mm 3 mps 740 mmHg 96%
    03:00 +5°C° 0.1 mm 3 mps 740 mmHg 96%
    04:00 +5°C° 0.2 mm 3 mps 740 mmHg 96%
    05:00 +5°C° 0.2 mm 3 mps 739 mmHg 96%
    06:00 +6°C° 0.2 mm 2 mps 739 mmHg 97%
    07:00 +6°C° 0 mm 2 mps 739 mmHg 96%
    08:00 +6°C° 0 mm 2 mps 739 mmHg 96%
    09:00 +6°C° 0 mm 2 mps 739 mmHg 96%
    10:00 +7°C° 0 mm 2 mps 739 mmHg 94%
    11:00 +7°C° 0 mm 2 mps 739 mmHg 92%
    12:00 +8°C° 0 mm 2 mps 739 mmHg 91%
    13:00 +8°C° 0.1 mm 2 mps 739 mmHg 91%
    14:00 +8°C° 0.1 mm 2 mps 739 mmHg 92%
    15:00 +8°C° 0.1 mm 2 mps 739 mmHg 92%
    16:00 +8°C° 0.4 mm 2 mps 740 mmHg 93%
    17:00 +7°C° 0.4 mm 3 mps 740 mmHg 93%
    18:00 +7°C° 0.4 mm 3 mps 740 mmHg 93%
    19:00 +7°C° 0.2 mm 3 mps 740 mmHg 93%
    20:00 +7°C° 0.2 mm 3 mps 741 mmHg 93%
    21:00 +7°C° 0.2 mm 2 mps 741 mmHg 93%
    22:00 +6°C° 0 mm 2 mps 741 mmHg 94%
    23:00 +6°C° 0 mm 2 mps 742 mmHg 94%

    21 December, Saturday

    Time Temperature Precipitation Wind Pressure Humidity
    00:00 +5°C° 0 mm 2 mps 742 mmHg 95%
    01:00 +4°C° 0 mm 3 mps 742 mmHg 95%
    02:00 +4°C° 0 mm 3 mps 742 mmHg 95%
    03:00 +4°C° 0 mm 3 mps 743 mmHg 95%
    04:00 +4°C° 0 mm 3 mps 743 mmHg 94%
    05:00 +4°C° 0 mm 4 mps 744 mmHg 93%
    06:00 +4°C° 0 mm 4 mps 744 mmHg 93%
    07:00 +4°C° 0.1 mm 3 mps 745 mmHg 93%
    08:00 +4°C° 0.1 mm 3 mps 745 mmHg 92%
    09:00 +4°C° 0.1 mm 3 mps 746 mmHg 92%
    10:00 +5°C° 0.1 mm 4 mps 746 mmHg 89%
    11:00 +6°C° 0.1 mm 5 mps 747 mmHg 86%
    12:00 +7°C° 0.1 mm 6 mps 747 mmHg 82%
    13:00 +7°C° 0 mm 5 mps 747 mmHg 82%
    14:00 +6°C° 0 mm 5 mps 746 mmHg 82%
    15:00 +6°C° 0 mm 4 mps 746 mmHg 82%
    16:00 +6°C° 0.2 mm 5 mps 745 mmHg 85%
    17:00 +5°C° 0.2 mm 6 mps 744 mmHg 87%
    18:00 +5°C° 0.2 mm 7 mps 743 mmHg 89%
    19:00 +5°C° 2.6 mm 8 mps 742 mmHg 91%
    20:00 +6°C° 2.6 mm 8 mps 741 mmHg 93%
    21:00 +7°C° 2.6 mm 9 mps 740 mmHg 94%
    22:00 +7°C° 0.8 mm 9 mps 740 mmHg 93%
    23:00 +7°C° 0.8 mm 9 mps 739 mmHg 91%
    Show more